Regional Weather Roundup
Issued by NWS

Home | Current Version | Previous Version | Graphics & Text | Print | Product List | Glossary On
Versions: 1 2 3 4 5 6 7 8 9 10 11 12 13 14 15 16 17 18 19 20 21 22 23 24 25 26 27 28 29 30 31 32 33 34 35 36 37 38 39 40 41 42 43 44 45 46 47 48 49 50
000
ASUS43 KTOP 251359
RWRKS

WEATHER ROUNDUP FOR KANSAS
NATIONAL WEATHER SERVICE GOODLAND KS
900 AM CDT FRI JUL 25 2014

NOTE:  "FAIR" INDICATES FEW OR NO CLOUDS BELOW 12,000 FEET WITH NO
SIGNIFICANT WEATHER AND/OR OBSTRUCTIONS TO VISIBILITY.

KSZ001>006-013>018-027>032-041>047-251500-
NORTHWEST KANSAS

CITY           SKY/WX    TMP DP  RH WIND       PRES   REMARKS
GOODLAND       MOSUNNY   79  58  48 W12       29.94R
HAYS           SUNNY     75  63  64 SW15      29.85R
HILL CITY      MOSUNNY   84  62  47 SW12G21   29.83R
RUSSELL        SUNNY     83  66  56 SW24G32   29.83S
$$

KSZ061>065-074>080-084>089-251500-
SOUTHWEST KANSAS

CITY           SKY/WX    TMP DP  RH WIND       PRES   REMARKS
DODGE CITY     SUNNY     81  62  52 SW22G30   29.91F
ELKHART          N/A     79  57  46 SW14        N/A
GARDEN CITY    SUNNY     79  61  53 SW17G28   29.91R
GREAT BEND     SUNNY     82  66  57 SW22G28   29.85F
LIBERAL        SUNNY     82  61  47 SW23G30   29.97S
$$

KSZ066>073-081>083-090>101-251500-
SOUTHEAST KANSAS

CITY           SKY/WX    TMP DP  RH WIND       PRES   REMARKS
CHANUTE        MOSUNNY   79  70  74 SW20G25   29.95R
COFFEYVILLE    SUNNY     78  72  81 S14       29.97S
HUTCHINSON     SUNNY     82  68  62 S17       29.90R
MEDICINE LODGE   N/A     80  69  69 S10       29.92S
NEWTON         MOSUNNY   79  64  61 SW17G24   29.94S
PARSONS        SUNNY     78  71  79 S13       29.97S
WICHITA INTL   MOSUNNY   80  67  64 S18G26    29.91F
WICHITA JABRA  SUNNY     81  68  64 S18       29.91F
WINFIELD       SUNNY     80  70  71 S12       29.97R
$$

KSZ007>012-019>026-033>040-048>060-102>105-251500-
NORTHEAST KANSAS

CITY           SKY/WX    TMP DP  RH WIND       PRES   REMARKS
CONCORDIA      SUNNY     85  68  56 SW20G30   29.81S
EMPORIA        PTSUNNY   78  69  73 S15       29.90F
LAWRENCE       PTSUNNY   78  71  79 SE9       29.88F
MANHATTAN      SUNNY     85  70  60 SW17G26   29.82F
OLATHE IND     PTSUNNY   76  70  82 S15G21    29.91F
OLATHE EXE     MOSUNNY   76  70  82 S14       29.90F
SALINA         SUNNY     86  68  54 SW25      29.84S
TOPEKA BILLARD PTSUNNY   82  71  69 S13G22    29.86F
TOPEKA FORBES  PTSUNNY   81  70  69 S14G22    29.87S
$$


USA.gov is the U.S. government's official web portal to all federal, state and local government web resources and services.